| time (UTC) | temp F | wind direction | speed MPH | gust MPH | rain 1hr in | rain 24hr in | rain mn in | humidity % | barometer mb |
| 20260506101552 | 52 | 0 | 0.0 | 3.0 | 0.00 | 1.12 | 0.16 | 88 | 1006.1 |
| 20260506101041 | 52 | 353 | 0.0 | 4.0 | 0.00 | 1.12 | 0.16 | 88 | 1006.1 |
| 20260506100543 | 52 | 0 | 0.0 | 4.0 | 0.00 | 1.12 | 0.16 | 88 | 1006.0 |
| 20260506100058 | 53 | 345 | 0.0 | 4.0 | 0.00 | 1.12 | 0.16 | 88 | 1006.0 |
| 20260506095542 | 52 | 316 | 0.0 | 3.0 | 0.00 | 1.12 | 0.16 | 88 | 1006.0 |
| 20260506095042 | 53 | 295 | 0.0 | 3.0 | 0.00 | 1.12 | 0.16 | 88 | 1005.9 |
| 20260506094600 | 52 | 0 | 0.0 | 3.0 | 0.00 | 1.12 | 0.16 | 88 | 1006.0 |
| 20260506094041 | 52 | 263 | 0.0 | 5.0 | 0.00 | 1.12 | 0.16 | 88 | 1006.0 |
| 20260506093541 | 52 | 295 | 0.0 | 7.0 | 0.00 | 1.12 | 0.16 | 89 | 1006.0 |
| 20260506093050 | 52 | 342 | 0.0 | 7.0 | 0.00 | 1.12 | 0.16 | 89 | 1006.0 |
| 20260506092541 | 52 | 340 | 1.0 | 4.0 | 0.00 | 1.12 | 0.16 | 89 | 1005.9 |
| 20260506092041 | 52 | 292 | 0.0 | 4.0 | 0.00 | 1.12 | 0.16 | 89 | 1005.8 |
| 20260506091552 | 52 | 0 | 0.0 | 1.0 | 0.00 | 1.12 | 0.16 | 90 | 1005.9 |
| 20260506091043 | 52 | 0 | 0.0 | 3.0 | 0.00 | 1.12 | 0.16 | 90 | 1005.9 |
| 20260506090540 | 52 | 0 | 0.0 | 4.0 | 0.00 | 1.12 | 0.16 | 90 | 1006.0 |
| 20260506090053 | 52 | 11 | 0.0 | 4.0 | 0.00 | 1.12 | 0.16 | 90 | 1005.9 |
| 20260506085541 | 52 | 0 | 0.0 | 4.0 | 0.00 | 1.12 | 0.16 | 90 | 1005.9 |
| 20260506085041 | 52 | 295 | 0.0 | 4.0 | 0.00 | 1.12 | 0.16 | 90 | 1005.9 |
| 20260506084614 | 52 | 0 | 0.0 | 5.0 | 0.00 | 1.12 | 0.16 | 90 | 1005.9 |
| 20260506084041 | 52 | 0 | 0.0 | 5.0 | 0.00 | 1.12 | 0.16 | 90 | 1005.7 |
| 20260506083542 | 52 | 291 | 0.0 | 5.0 | 0.00 | 1.12 | 0.16 | 90 | 1005.8 |
| 20260506083050 | 52 | 305 | 0.0 | 3.0 | 0.00 | 1.12 | 0.16 | 91 | 1005.7 |
| 20260506082543 | 52 | 249 | 0.0 | 3.0 | 0.00 | 1.12 | 0.16 | 91 | 1005.6 |
| 20260506082043 | 53 | 269 | 0.0 | 1.0 | 0.00 | 1.12 | 0.16 | 91 | 1005.4 |
| 20260506081557 | 53 | 0 | 0.0 | 1.0 | 0.00 | 1.12 | 0.16 | 92 | 1005.5 |
| 20260506081041 | 53 | 0 | 0.0 | 1.0 | 0.00 | 1.12 | 0.16 | 92 | 1005.5 |
| 20260506080541 | 53 | 0 | 0.0 | 1.0 | 0.00 | 1.12 | 0.16 | 92 | 1005.4 |
| 20260506073050 | 52 | 0 | 0.0 | 0.0 | 0.00 | 1.12 | 0.16 | 93 | 1005.4 |
| 20260506072542 | 52 | 0 | 0.0 | 0.0 | 0.00 | 1.12 | 0.16 | 94 | 1005.4 |
| 20260506072042 | 51 | 0 | 0.0 | 1.0 | 0.00 | 1.12 | 0.16 | 93 | 1005.5 |
| 20260506071549 | 51 | 0 | 0.0 | 1.0 | 0.00 | 1.12 | 0.16 | 93 | 1005.4 |
| 20260506071038 | 51 | 342 | 0.0 | 1.0 | 0.00 | 1.12 | 0.16 | 94 | 1005.3 |
| 20260506070542 | 51 | 0 | 0.0 | 1.0 | 0.00 | 1.12 | 0.16 | 94 | 1005.5 |
| 20260506062041 | 50 | 0 | 0.0 | 1.0 | 0.00 | 1.12 | 0.16 | 94 | 1005.4 |
| 20260506061555 | 50 | 0 | 0.0 | 1.0 | 0.01 | 1.12 | 0.16 | 94 | 1005.4 |
| 20260506061043 | 50 | 0 | 0.0 | 1.0 | 0.01 | 1.12 | 0.16 | 93 | 1005.4 |
| 20260506060542 | 50 | 0 | 0.0 | 1.0 | 0.01 | 1.12 | 0.16 | 94 | 1005.3 |
| 20260506051042 | 50 | 0 | 0.0 | 0.0 | 0.02 | 1.11 | 0.14 | 93 | 1005.4 |
| 20260506050541 | 50 | 0 | 0.0 | 0.0 | 0.02 | 1.11 | 0.14 | 94 | 1005.5 |
| 20260506045041 | 49 | 0 | 0.0 | 0.0 | 0.00 | 1.09 | 0.13 | 93 | 1005.4 |
| 20260506044553 | 49 | 0 | 0.0 | 0.0 | 0.00 | 1.09 | 0.13 | 93 | 1005.5 |
| 20260506044045 | 49 | 0 | 0.0 | 0.0 | 0.00 | 1.09 | 0.13 | 93 | 1005.4 |
| 20260506043544 | 49 | 0 | 0.0 | 1.0 | 0.00 | 1.09 | 0.13 | 93 | 1005.2 |
| 20260506043049 | 49 | 0 | 0.0 | 1.0 | 0.01 | 1.09 | 0.13 | 93 | 1005.4 |
| 20260506042542 | 49 | 0 | 0.0 | 0.0 | 0.00 | 1.08 | 0.12 | 93 | 1005.2 |
| 20260506042041 | 49 | 0 | 0.0 | 0.0 | 0.00 | 1.08 | 0.12 | 93 | 1005.3 |
| 20260506041556 | 49 | 0 | 0.0 | 0.0 | 0.00 | 1.08 | 0.12 | 93 | 1005.2 |
| 20260506041038 | 49 | 0 | 0.0 | 1.0 | 0.00 | 1.08 | 0.12 | 93 | 1005.2 |
| 20260506040542 | 49 | 0 | 0.0 | 1.0 | 0.00 | 1.08 | 0.12 | 93 | 1005.3 |
| 20260506040050 | 49 | 0 | 0.0 | 1.0 | 0.01 | 1.08 | 0.12 | 93 | 1005.3 |
| 20260506035541 | 49 | 302 | 0.0 | 1.0 | 0.01 | 1.15 | 0.12 | 93 | 1005.4 |
| 20260506035041 | 49 | 0 | 0.0 | 1.0 | 0.01 | 1.15 | 0.12 | 93 | 1005.3 |
| 20260506034550 | 49 | 302 | 0.0 | 1.0 | 0.01 | 1.15 | 0.12 | 93 | 1005.4 |
| 20260506034043 | 50 | 0 | 0.0 | 1.0 | 0.01 | 1.15 | 0.12 | 93 | 1005.4 |
| 20260506033542 | 49 | 0 | 0.0 | 1.0 | 0.01 | 1.15 | 0.12 | 93 | 1005.3 |
| 20260506033051 | 50 | 0 | 0.0 | 1.0 | 0.00 | 1.14 | 0.11 | 93 | 1005.4 |
| 20260506032541 | 50 | 0 | 0.0 | 1.0 | 0.00 | 1.14 | 0.11 | 93 | 1005.4 |
| 20260506032041 | 50 | 0 | 0.0 | 0.0 | 0.00 | 1.14 | 0.11 | 93 | 1005.5 |
| 20260506031548 | 50 | 0 | 0.0 | 0.0 | 0.00 | 1.14 | 0.11 | 93 | 1005.4 |
| 20260506031041 | 50 | 0 | 0.0 | 0.0 | 0.00 | 1.14 | 0.11 | 93 | 1005.5 |
| 20260506030544 | 50 | 0 | 0.0 | 0.0 | 0.00 | 1.14 | 0.11 | 93 | 1005.6 |
| 20260506030057 | 50 | 0 | 0.0 | 0.0 | 0.00 | 1.14 | 0.11 | 93 | 1005.7 |
| 20260506025538 | 50 | 0 | 0.0 | 0.0 | 0.00 | 1.16 | 0.11 | 93 | 1005.7 |
| 20260506025038 | 50 | 0 | 0.0 | 0.0 | 0.00 | 1.16 | 0.11 | 93 | 1005.7 |
| 20260506024553 | 50 | 0 | 0.0 | 0.0 | 0.00 | 1.16 | 0.11 | 93 | 1005.7 |
| 20260506024042 | 50 | 0 | 0.0 | 0.0 | 0.00 | 1.16 | 0.11 | 93 | 1005.8 |
| 20260506023542 | 50 | 0 | 0.0 | 0.0 | 0.00 | 1.16 | 0.11 | 93 | 1005.9 |
| 20260506023108 | 50 | 0 | 0.0 | 0.0 | 0.00 | 1.16 | 0.11 | 93 | 1005.9 |
| 20260506022541 | 50 | 0 | 0.0 | 0.0 | 0.00 | 1.16 | 0.11 | 93 | 1005.9 |
| 20260506022040 | 50 | 0 | 0.0 | 0.0 | 0.00 | 1.16 | 0.11 | 93 | 1006.0 |
| 20260506021609 | 50 | 0 | 0.0 | 0.0 | 0.00 | 1.16 | 0.11 | 93 | 1005.8 |
| 20260506021049 | 50 | 0 | 0.0 | 0.0 | 0.00 | 1.16 | 0.11 | 93 | 1005.9 |
| 20260506020538 | 50 | 0 | 0.0 | 0.0 | 0.00 | 1.16 | 0.11 | 93 | 1005.8 |
| 20260506020048 | 50 | 0 | 0.0 | 1.0 | 0.00 | 1.16 | 0.11 | 93 | 1006.0 |
| 20260506015541 | 50 | 0 | 0.0 | 1.0 | 0.00 | 1.16 | 0.11 | 93 | 1006.0 |
| 20260506015044 | 50 | 0 | 0.0 | 0.0 | 0.00 | 1.16 | 0.11 | 93 | 1006.0 |
| 20260506014550 | 50 | 0 | 0.0 | 0.0 | 0.01 | 1.16 | 0.11 | 93 | 1006.0 |
| 20260506014042 | 50 | 0 | 0.0 | 1.0 | 0.01 | 1.16 | 0.11 | 93 | 1006.1 |
| 20260506013541 | 50 | 0 | 0.0 | 1.0 | 0.01 | 1.16 | 0.11 | 93 | 1006.1 |
| 20260506013058 | 50 | 0 | 0.0 | 1.0 | 0.02 | 1.16 | 0.11 | 93 | 1006.1 |
| 20260506012541 | 50 | 0 | 0.0 | 0.0 | 0.02 | 1.16 | 0.11 | 93 | 1006.1 |
| 20260506012042 | 50 | 0 | 0.0 | 1.0 | 0.02 | 1.16 | 0.11 | 93 | 1005.9 |
| 20260506011604 | 50 | 0 | 0.0 | 1.0 | 0.02 | 1.16 | 0.11 | 93 | 1006.0 |
| 20260506011042 | 50 | 0 | 0.0 | 1.0 | 0.03 | 1.16 | 0.11 | 93 | 1005.8 |
| 20260506010539 | 50 | 0 | 0.0 | 1.0 | 0.02 | 1.15 | 0.10 | 93 | 1005.9 |
| 20260506010043 | 50 | 0 | 0.0 | 1.0 | 0.02 | 1.15 | 0.10 | 93 | 1005.8 |
| 20260506005543 | 50 | 0 | 0.0 | 1.0 | 0.03 | 1.15 | 0.10 | 93 | 1005.9 |
| 20260506005044 | 50 | 0 | 0.0 | 1.0 | 0.03 | 1.15 | 0.10 | 93 | 1005.9 |
| 20260506004546 | 50 | 0 | 0.0 | 1.0 | 0.02 | 1.14 | 0.09 | 93 | 1006.0 |
| 20260506004039 | 50 | 264 | 0.0 | 1.0 | 0.03 | 1.14 | 0.09 | 93 | 1006.0 |
| 20260506003541 | 50 | 360 | 0.0 | 1.0 | 0.02 | 1.14 | 0.08 | 93 | 1006.1 |
| 20260506003046 | 50 | 0 | 0.0 | 1.0 | 0.02 | 1.14 | 0.08 | 93 | 1006.0 |
| 20260506002540 | 50 | 0 | 0.0 | 1.0 | 0.02 | 1.14 | 0.08 | 93 | 1006.1 |
| 20260506002039 | 50 | 0 | 0.0 | 1.0 | 0.03 | 1.14 | 0.08 | 93 | 1006.2 |
| 20260506001554 | 50 | 316 | 0.0 | 1.0 | 0.03 | 1.14 | 0.08 | 93 | 1006.3 |
| 20260506001042 | 50 | 0 | 0.0 | 1.0 | 0.02 | 1.13 | 0.07 | 93 | 1006.2 |
| 20260506000539 | 50 | 0 | 0.0 | 1.0 | 0.03 | 1.13 | 0.07 | 93 | 1006.2 |
| 20260506000049 | 50 | 0 | 0.0 | 1.0 | 0.03 | 1.13 | 0.07 | 93 | 1006.4 |
| 20260505235539 | 50 | 0 | 0.0 | 1.0 | 0.03 | 1.12 | 0.07 | 93 | 1006.4 |
| 20260505235038 | 51 | 344 | 0.0 | 1.0 | 0.03 | 1.12 | 0.07 | 93 | 1006.5 |
| 20260505234551 | 51 | 320 | 0.0 | 1.0 | 0.03 | 1.12 | 0.07 | 93 | 1006.5 |
| 20260505234039 | 51 | 0 | 0.0 | 1.0 | 0.03 | 1.11 | 0.06 | 93 | 1006.7 |
| 20260505233538 | 51 | 0 | 0.0 | 0.0 | 0.03 | 1.11 | 0.06 | 93 | 1006.7 |
| 20260505233047 | 51 | 0 | 0.0 | 1.0 | 0.03 | 1.11 | 0.06 | 93 | 1006.7 |
| 20260505232541 | 51 | 0 | 0.0 | 1.0 | 0.03 | 1.11 | 0.06 | 93 | 1006.6 |
| 20260505232041 | 51 | 0 | 0.0 | 1.0 | 0.03 | 1.11 | 0.05 | 93 | 1006.7 |
| 20260505231604 | 51 | 0 | 0.0 | 1.0 | 0.03 | 1.11 | 0.05 | 93 | 1006.6 |
| 20260505231041 | 51 | 0 | 0.0 | 1.0 | 0.04 | 1.11 | 0.05 | 93 | 1006.7 |
| 20260505230541 | 51 | 0 | 0.0 | 1.0 | 0.03 | 1.10 | 0.04 | 93 | 1006.7 |
| 20260505230052 | 51 | 0 | 0.0 | 1.0 | 0.04 | 1.10 | 0.04 | 93 | 1006.7 |
| 20260505225539 | 51 | 0 | 0.0 | 1.0 | 0.03 | 1.10 | 0.03 | 93 | 1006.6 |
| 20260505225041 | 51 | 0 | 0.0 | 1.0 | 0.04 | 1.10 | 0.03 | 92 | 1006.7 |
| 20260505224554 | 51 | 0 | 0.0 | 1.0 | 0.03 | 1.09 | 0.03 | 92 | 1006.7 |
| 20260505224039 | 51 | 0 | 0.0 | 1.0 | 0.04 | 1.09 | 0.03 | 92 | 1006.6 |
| 20260505223538 | 51 | 344 | 0.0 | 1.0 | 0.05 | 1.09 | 0.03 | 92 | 1006.8 |
| 20260505223052 | 51 | 0 | 0.0 | 0.0 | 0.04 | 1.08 | 0.02 | 92 | 1006.7 |
| 20260505222542 | 51 | 0 | 0.0 | 0.0 | 0.05 | 1.08 | 0.02 | 92 | 1006.7 |
| 20260505222038 | 51 | 0 | 0.0 | 1.0 | 0.04 | 1.07 | 0.01 | 92 | 1006.8 |
| 20260505221545 | 51 | 0 | 0.0 | 1.0 | 0.05 | 1.07 | 0.01 | 92 | 1006.8 |
| 20260505221038 | 51 | 0 | 0.0 | 1.0 | 0.05 | 1.07 | 0.00 | 92 | 1006.8 |
| 20260505220539 | 51 | 0 | 0.0 | 1.0 | 0.05 | 1.07 | 0.00 | 92 | 1006.8 |
| 20260505220059 | 52 | 0 | 0.0 | 1.0 | 0.05 | 1.06 | 0.00 | 92 | 1006.9 |
| 20260505215543 | 52 | 0 | 0.0 | 2.0 | 0.06 | 1.07 | 1.06 | 92 | 1006.8 |
| 20260505215040 | 52 | 0 | 0.0 | 2.0 | 0.06 | 1.06 | 1.05 | 92 | 1006.8 |
| 20260505214556 | 52 | 0 | 0.0 | 1.0 | 0.07 | 1.06 | 1.05 | 92 | 1006.9 |
| 20260505214043 | 52 | 0 | 0.0 | 1.0 | 0.06 | 1.05 | 1.04 | 92 | 1006.9 |
| 20260505213538 | 52 | 0 | 0.0 | 1.0 | 0.05 | 1.04 | 1.03 | 92 | 1006.9 |
| 20260505213056 | 52 | 0 | 0.0 | 0.0 | 0.06 | 1.04 | 1.03 | 92 | 1006.9 |
| 20260505212538 | 52 | 0 | 0.0 | 0.0 | 0.06 | 1.03 | 1.03 | 92 | 1007.0 |
| 20260505212039 | 52 | 0 | 0.0 | 0.0 | 0.06 | 1.03 | 1.03 | 92 | 1007.1 |
| 20260505211549 | 52 | 0 | 0.0 | 1.0 | 0.07 | 1.03 | 1.02 | 92 | 1007.1 |
| 20260505211044 | 52 | 0 | 0.0 | 1.0 | 0.07 | 1.02 | 1.01 | 92 | 1007.2 |
| 20260505210539 | 52 | 314 | 0.0 | 1.0 | 0.07 | 1.02 | 1.01 | 92 | 1007.1 |
| 20260505210048 | 52 | 322 | 0.0 | 1.0 | 0.08 | 1.01 | 1.00 | 92 | 1007.3 |
| 20260505205541 | 52 | 0 | 0.0 | 0.0 | 0.08 | 1.00 | 1.00 | 92 | 1007.2 |
| 20260505205038 | 52 | 0 | 0.0 | 0.0 | 0.09 | 1.00 | 0.99 | 92 | 1007.3 |
| 20260505204552 | 52 | 0 | 0.0 | 0.0 | 0.10 | 0.99 | 0.98 | 92 | 1007.2 |
| 20260505204041 | 52 | 0 | 0.0 | 1.0 | 0.12 | 0.99 | 0.98 | 92 | 1007.3 |
| 20260505203543 | 52 | 0 | 0.0 | 1.0 | 0.14 | 0.99 | 0.98 | 92 | 1007.3 |
| 20260505203107 | 52 | 0 | 0.0 | 1.0 | 0.14 | 0.98 | 0.97 | 92 | 1007.2 |
| 20260505202539 | 53 | 325 | 0.0 | 1.0 | 0.17 | 0.97 | 0.96 | 92 | 1007.3 |
| 20260505202039 | 53 | 0 | 0.0 | 1.0 | 0.17 | 0.96 | 0.96 | 92 | 1007.3 |
| 20260505201554 | 53 | 0 | 0.0 | 1.0 | 0.18 | 0.96 | 0.95 | 92 | 1007.3 |
| 20260505201038 | 53 | 345 | 0.0 | 1.0 | 0.19 | 0.95 | 0.94 | 92 | 1007.2 |
| 20260505200539 | 53 | 0 | 0.0 | 1.0 | 0.20 | 0.94 | 0.93 | 92 | 1007.1 |
| 20260505200052 | 53 | 0 | 0.0 | 1.0 | 0.20 | 0.92 | 0.92 | 92 | 1007.2 |
| 20260505195542 | 53 | 0 | 0.0 | 1.0 | 0.22 | 0.92 | 0.91 | 92 | 1007.2 |
| 20260505195038 | 53 | 0 | 0.0 | 1.0 | 0.24 | 0.91 | 0.89 | 92 | 1007.2 |
| 20260505194545 | 53 | 0 | 0.0 | 2.0 | 0.25 | 0.89 | 0.88 | 92 | 1007.2 |
| 20260505194042 | 53 | 0 | 0.0 | 5.0 | 0.24 | 0.87 | 0.85 | 92 | 1007.2 |
| 20260505193540 | 53 | 0 | 1.0 | 5.0 | 0.24 | 0.85 | 0.83 | 91 | 1007.3 |
| 20260505193044 | 53 | 352 | 0.0 | 4.0 | 0.28 | 0.84 | 0.82 | 92 | 1007.2 |
| 20260505192543 | 53 | 0 | 0.0 | 4.0 | 0.27 | 0.81 | 0.79 | 91 | 1007.2 |
| 20260505192045 | 53 | 310 | 0.0 | 1.0 | 0.28 | 0.80 | 0.78 | 92 | 1007.2 |
| 20260505191542 | 53 | 0 | 0.0 | 1.0 | 0.28 | 0.78 | 0.77 | 91 | 1007.1 |
| 20260505191041 | 53 | 0 | 0.0 | 1.0 | 0.26 | 0.76 | 0.74 | 91 | 1007.3 |
| 20260505190539 | 53 | 0 | 0.0 | 1.0 | 0.26 | 0.74 | 0.73 | 91 | 1007.2 |
| 20260505190046 | 53 | 28 | 0.0 | 2.0 | 0.25 | 0.73 | 0.71 | 91 | 1007.3 |
| 20260505185540 | 53 | 0 | 0.0 | 2.0 | 0.24 | 0.70 | 0.68 | 91 | 1007.2 |
| 20260505185040 | 54 | 0 | 0.0 | 1.0 | 0.23 | 0.66 | 0.65 | 91 | 1007.0 |
| 20260505184549 | 54 | 343 | 0.0 | 1.0 | 0.23 | 0.64 | 0.62 | 91 | 1007.2 |
| 20260505184039 | 54 | 0 | 0.0 | 1.0 | 0.23 | 0.62 | 0.61 | 91 | 1007.2 |
| 20260505183542 | 54 | 0 | 0.0 | 1.0 | 0.21 | 0.59 | 0.58 | 91 | 1007.3 |
| 20260505183046 | 54 | 0 | 0.0 | 0.0 | 0.18 | 0.55 | 0.54 | 91 | 1007.3 |
| 20260505182538 | 54 | 0 | 0.0 | 1.0 | 0.16 | 0.53 | 0.51 | 91 | 1007.2 |
| 20260505182041 | 54 | 0 | 0.0 | 1.0 | 0.14 | 0.51 | 0.49 | 91 | 1007.2 |
| 20260505181552 | 54 | 0 | 0.0 | 0.0 | 0.16 | 0.50 | 0.48 | 91 | 1007.1 |
| 20260505181038 | 54 | 0 | 0.0 | 0.0 | 0.18 | 0.49 | 0.48 | 91 | 1007.2 |
| 20260505180540 | 54 | 0 | 0.0 | 0.0 | 0.18 | 0.48 | 0.46 | 91 | 1007.3 |
| 20260505180057 | 55 | 0 | 0.0 | 1.0 | 0.20 | 0.47 | 0.45 | 91 | 1007.3 |
| 20260505175539 | 55 | 0 | 0.0 | 1.0 | 0.21 | 0.46 | 0.44 | 91 | 1007.3 |
| 20260505175039 | 55 | 0 | 0.0 | 1.0 | 0.19 | 0.44 | 0.41 | 90 | 1007.2 |
| 20260505174547 | 55 | 0 | 0.0 | 1.0 | 0.18 | 0.41 | 0.39 | 90 | 1007.1 |
| 20260505174042 | 55 | 296 | 0.0 | 0.0 | 0.18 | 0.40 | 0.37 | 90 | 1007.1 |
| 20260505173541 | 55 | 0 | 0.0 | 1.0 | 0.18 | 0.39 | 0.37 | 90 | 1007.3 |
| 20260505173100 | 55 | 0 | 0.0 | 1.0 | 0.19 | 0.38 | 0.36 | 90 | 1007.2 |
| 20260505172538 | 55 | 0 | 0.0 | 1.0 | 0.20 | 0.37 | 0.35 | 90 | 1007.2 |
| 20260505172039 | 55 | 0 | 0.0 | 1.0 | 0.20 | 0.37 | 0.34 | 90 | 1007.3 |
| 20260505171547 | 55 | 0 | 0.0 | 0.0 | 0.18 | 0.34 | 0.32 | 90 | 1007.3 |
| 20260505171039 | 56 | 0 | 0.0 | 0.0 | 0.16 | 0.32 | 0.29 | 90 | 1007.4 |
| 20260505170540 | 56 | 0 | 0.0 | 1.0 | 0.14 | 0.29 | 0.27 | 89 | 1007.3 |
| 20260505170104 | 56 | 0 | 0.0 | 1.0 | 0.12 | 0.27 | 0.25 | 89 | 1007.3 |
| 20260505165538 | 56 | 0 | 0.0 | 1.0 | 0.11 | 0.25 | 0.22 | 89 | 1007.4 |
| 20260505165043 | 56 | 0 | 0.0 | 1.0 | 0.10 | 0.24 | 0.21 | 89 | 1007.4 |
| 20260505164550 | 56 | 0 | 0.0 | 1.0 | 0.10 | 0.23 | 0.20 | 88 | 1007.4 |
| 20260505164038 | 57 | 0 | 0.0 | 0.0 | 0.08 | 0.22 | 0.18 | 88 | 1007.5 |
| 20260505163541 | 57 | 0 | 0.0 | 1.0 | 0.07 | 0.21 | 0.18 | 88 | 1007.5 |
| 20260505163051 | 57 | 0 | 0.0 | 1.0 | 0.06 | 0.19 | 0.16 | 88 | 1007.4 |
| 20260505162538 | 57 | 341 | 0.0 | 1.0 | 0.04 | 0.18 | 0.14 | 88 | 1007.5 |
| 20260505162042 | 57 | 0 | 0.0 | 0.0 | 0.03 | 0.17 | 0.14 | 87 | 1007.5 |
| 20260505161614 | 58 | 0 | 0.0 | 0.0 | 0.03 | 0.17 | 0.14 | 87 | 1007.5 |
| 20260505161039 | 58 | 0 | 0.0 | 0.0 | 0.03 | 0.16 | 0.13 | 86 | 1007.5 |
| 20260505160542 | 58 | 0 | 0.0 | 1.0 | 0.02 | 0.15 | 0.12 | 86 | 1007.5 |
| 20260505153103 | 60 | 0 | 0.0 | 1.0 | 0.00 | 0.18 | 0.10 | 78 | 1007.5 |
| 20260505152540 | 60 | 0 | 0.0 | 1.0 | 0.00 | 0.18 | 0.10 | 77 | 1007.7 |
| 20260505152039 | 60 | 0 | 0.0 | 1.0 | 0.00 | 0.18 | 0.10 | 77 | 1007.6 |
| 20260505151558 | 60 | 0 | 0.0 | 0.0 | 0.00 | 0.18 | 0.10 | 76 | 1007.5 |
| 20260505151040 | 60 | 0 | 0.0 | 1.0 | 0.00 | 0.18 | 0.10 | 76 | 1007.7 |
| 20260505150542 | 60 | 0 | 0.0 | 1.0 | 0.00 | 0.18 | 0.10 | 75 | 1007.6 |
| 20260505140540 | 61 | 342 | 0.0 | 2.0 | 0.00 | 0.32 | 0.10 | 74 | 1008.1 |
| 20260505124554 | 61 | 283 | 0.0 | 1.0 | 0.00 | 0.32 | 0.10 | 78 | 1008.9 |
| 20260505124042 | 61 | 330 | 0.0 | 3.0 | 0.00 | 0.32 | 0.10 | 79 | 1009.0 |
| 20260505123541 | 60 | 292 | 0.0 | 3.0 | 0.00 | 0.32 | 0.10 | 79 | 1009.0 |
| 20260505123047 | 60 | 0 | 0.0 | 3.0 | 0.00 | 0.32 | 0.10 | 80 | 1009.0 |
| 20260505122544 | 60 | 0 | 0.0 | 2.0 | 0.00 | 0.32 | 0.10 | 78 | 1009.1 |
| 20260505122042 | 60 | 0 | 0.0 | 2.0 | 0.00 | 0.32 | 0.10 | 79 | 1009.2 |
| 20260505121608 | 60 | 270 | 0.0 | 1.0 | 0.00 | 0.32 | 0.10 | 79 | 1009.2 |
| 20260505121044 | 60 | 0 | 0.0 | 1.0 | 0.00 | 0.32 | 0.10 | 79 | 1009.1 |
| 20260505120541 | 60 | 0 | 0.0 | 3.0 | 0.00 | 0.32 | 0.10 | 79 | 1009.2 |
| 20260505120055 | 60 | 0 | 0.0 | 3.0 | 0.00 | 0.32 | 0.10 | 79 | 1009.2 |
| 20260505115546 | 60 | 257 | 0.0 | 1.0 | 0.00 | 0.32 | 0.10 | 80 | 1009.2 |
| 20260505115041 | 60 | 262 | 0.0 | 1.0 | 0.00 | 0.32 | 0.10 | 81 | 1009.3 |
| 20260505114548 | 59 | 290 | 0.0 | 2.0 | 0.00 | 0.32 | 0.10 | 81 | 1009.4 |
| 20260505114041 | 59 | 0 | 0.0 | 2.0 | 0.00 | 0.32 | 0.10 | 81 | 1009.4 |
| 20260505113544 | 59 | 269 | 0.0 | 1.0 | 0.00 | 0.32 | 0.10 | 81 | 1009.4 |
| 20260505113047 | 59 | 252 | 0.0 | 1.0 | 0.00 | 0.32 | 0.10 | 79 | 1009.5 |
| 20260505112541 | 60 | 0 | 0.0 | 4.0 | 0.00 | 0.32 | 0.10 | 80 | 1009.4 |
| 20260505112043 | 60 | 293 | 0.0 | 4.0 | 0.00 | 0.32 | 0.10 | 80 | 1009.6 |
| 20260505111549 | 60 | 306 | 0.0 | 1.0 | 0.00 | 0.32 | 0.10 | 78 | 1009.5 |
| 20260505111043 | 61 | 297 | 0.0 | 1.0 | 0.00 | 0.32 | 0.10 | 76 | 1009.7 |
| 20260505110541 | 61 | 259 | 0.0 | 1.0 | 0.00 | 0.32 | 0.10 | 75 | 1009.5 |
| 20260505102042 | 61 | 0 | 0.0 | 1.0 | 0.00 | 0.32 | 0.10 | 76 | 1009.9 |